Showing default

IRIDIUM 138, 43071

Orbit data source: Space-Track

IRIDIUM 138, 43071 is a payload satellite owned by Iridium (US) in LEO that was launched on Sat, 23 Dec 2017 UTC via an FALCON 9 launch vehicle from the Air Force Western Test Range (AFWTR). Payload-class satellites include a variety of spacecraft equipped with specific instruments for various scientific and technological missions. These include communications satellites like Starlink; space stations such as the ISS; scientific satellites like the Hubble; Earth observation satellites from companies like Planet Labs, Umbra, and HawkEye 360; GPS; miniature CubeSats for education and research; and military/defense satellites.

Loading next visibility...
Identifier
43071, 2017-083B
Orbit
LEO
Last TLE update
14 hours ago
Origin
Manufacturer
OATK SSG Gilbert
Mission
Operational Commercial Communications
Bus & Motor
ELITEBUS, Unknown motor
Mass
860 kg wet, 700 kg dry
Launch date (UTC)
2017-12-23 (8 years ago)
Launch vehicle
FALCON 9
Launch site
Air Force Western Test Range (AFWTR)
Object type
Payload
Rocket body
Debris
Shape & HBR
Trap Box + 2 Pan, 9.4 m
Radar Cross Section
14.423 m², Large (>1 m²)

Expand to show TLE details & history

TLE from 14 hours ago
0 IRIDIUM 138
1 43071U 17083B   25182.17151986  .00000026  00000-0  22677-5 0  9997
2 43071  86.3959 108.4448 0002756  89.6341 270.5171 14.34217651393829
Epoch: 2025-07-01T04:06Z
TLE epoch observation values (Epoch: 2025-07-01T04:06:59.315Z)
Latitude
-0.00001°
Longitude
127.22685°
Altitude
780.701 km
Speed
7.464 km/s
True Right ascension
07h 13m 46s
True Declination
0° 00' 00"
Sunlit
Object was in daylight at epoch
Visualization orbit readout
Latitude
63.34187°
Longitude
-60.18487°
Altitude
786.917 km
Speed
7.467 km/s
Apparent Right ascension
18h 07m 09s
Apparent Declination
16° 00' 18"
Sunlit
Object is in daylight
Visualization observer readout
Local Sidereal Time
05:42:53
Azimuth
352.98° N
Elevation
-33.794°
Doppler factor
1
Orbital elements
Apogee altitude
776.603 km
Perigee altitude
772.661 km
Semi-major axis
7,152.769 km
Eccentricity
0.00028
Inclination
86.3959°
RAAN
108.4448°
Arg. of periapsis
89.6341°
True anomaly
Unknown
Mean anomaly
270.5171°
Eccentric anomaly
Unknown
Mean motion
3.58783 °/min
Orbital period
100.34 mins
BSTAR
0.0000022677
Loading maneuver chart data...
Loading SW <> Apogee altitude chart data...
Loading historical data...
Loading historical data...
Loading historical data...
Loading historical data...
Loading historical data...
Loading historical data...
Loading historical data...

IRIDIUM 138 Visibility forecast

Observer location: undefined°, undefined°

Span
Click to sort rows by Start time (UTC) header in descending order
Start Az.
Max El. time (UTC)
Max El. Az.
Max El.
End time (UTC)
End Az.
9 mins2025-07-01 19:18:11.612Z161.507° S2025-07-01 19:22:11.612Z94.135° ESE39.107°2025-07-01 19:27:11.612Z12.348° NNE
4 mins2025-07-01 21:02:11.612Z268.404° W2025-07-01 21:03:11.612Z281.955° WNW15.721°2025-07-01 21:06:11.612Z319.465° NNW
8 mins2025-07-02 07:30:11.612Z346.264° N2025-07-02 07:33:11.612Z289.701° WNW41.65°2025-07-02 07:38:11.612Z191.284° SSW
|